SCP
0 0 0 0 -0 -0 -0 -0 -0 -0 -0 -0 -0 -0 -0 -0 -0 0 0 0 0 -0 0 -0 -0 0 0 -0 -0 0 -0 -0 -0 -0 0 0 0 -0 0 -0 0 0 0 0 0
0 0 0 0 -0 -0 -0 -0 -0 -0 -0 -0 -0 -0 -0 -0 -0 -0 0 0 0 -0 -0 -0 -0 0 0 -0 0 0 -0 -0 -0 0 0 0 0 -0 -0 -0 -0 -0 0 0 0
0 0 0 0 -0 -0 -0 -0 -0 -0 -0 -0 -0 -0 -0 -0 -0 0 0 0 0 -0 -0 -0 -0 0 -0 0 0 0 -0 -0 -0 -0 0 0 0 -0 0 -0 -0 -0 0 0 0
0 0 0 -0 -0 -0 -0 -0 -0 -0 -0 -0 -0 -0 -0 -0 0 -0 0 0 0 0 -0 -0 0 -0 -0 0 0 0 -0 0 0 -0 -0 0 -0 -0 -0 -0 -0 0 0 0 0
0 0 0 -0 -0 -0 -0 -0 -0 -0 -0 -0 -0 -0 -0 -0 0 -0 -0 0 0 -0 -0 0 -0 -0 -0 -0 0 -0 -0 -0 -0 -0 -0 -0 0 0 -0 0 -0 0 0 -0 0
0 0 0 0 -0 -0 -0 -0 -0 -0 -0 -0 -0 -0 0 -0 -0 -0 -0 -0 -0 -0 0 0 -0 -0 0 -0 0 0 0 0 -0 -0 -0 -0 -0 -0 -0 0 0 0 0 -0 0
0 0 0 0 -0 -0 -0 -0 -0 -0 -0 -0 -0 -0 -0 -0 0 -0 0 -0 -0 -0 -0 0 -0 0 -0 -0 -0 -0 -0 -0 -0 0 0 -0 0 -0 -0 0 0 -0 0 0 0
0 0 0 -0 -0 -0 -0 -0 -0 -0 -0 -0 -0 -0 -0 0 0 0 -0 0 0 -0 -0 -0 -0 0 -0 -0 -0 -0 0 -0 0 0 -0 -0 -0 -0 0 0 -0 -0 0 0 0
0 0 0 -0 -0 -0 -0 -0 -0 -0 -0 -0 -0 -0 -0 0 -0 0 -0 -0 0 0 0 -0 0 -0 -0 -0 0 0 -0 -0 0 0 -0 0 0 0 0 0 0 0 -0 -0 -0
0 0 0 -0 -0 -0 -0 -0 0 0 0 0 -0 -0 -0 0 0 -0 -0 -0 0 0 0 -0 -0 -0 -0 -0 -0 -0 -0 0 -0 0 0 0 0 0 0 -0 -0 -0 -0 -0 0
0 0 0 -0 -0 -0 -0 0 0 -0 -0 -0 0 -0 0 0 -0 0 0 0 0 0 -0 -0 0 -0 -0 -0 0 -0 -0 0 0 0 0 -0 0 -0 -0 -0 0 0 -0 0 0
0 0 0 0 -0 -0 0 0 0 0 -0 -0 -0 0 0 0 0 0 0 0 0 -0 -0 -0 0 -0 0 0 0 0 0 -0 0 0 0 -0 -0 -0 -0 0 -0 -0 -0 -0 -0
0 0 0 -0 -0 0 0 0 0 0 0 0 0 0 0 -0 0 0 -0 -0 -0 -0 -0 0 -0 0 -0 -0 -0 -0 0 -0 0 0 -0 -0 0 -0 -0 -0 -0 -0 -0 -0 -0
0 0 0 -0 0 0 0 0 0 -0 0 0 0 0 0 -0 0 0 -0 0 -0 0 -0 0 -0 -0 -0 0 0 -0 0 0 0 -0 -0 0 0 -0 0 0 0 -0 -0 -0 -0
0 0 0 0 0 0 0 0 0 -0 0 -0 -0 0 0 0 0 -0 0 0 -0 -0 0 -0 0 0 0 -0 0 -0 -0 -0 -0 -0 0 -0 0 -0 -0 -0 0 0 0 0 0
0 0 0 0 0 0 0 0 0 0 0 0 0 -0 -0 0 0 -0 -0 0 0 0 0 0 0 -0 0 -0 -0 -0 -0 -0 -0 -0 0 -0 0 -0 -0 0 0 0 0 0 0
0 0 0 0 0 0 0 0 0 0 0 0 0 0 0 0 0 0 -0 -0 -0 -0 -0 0 -0 0 0 -0 -0 0 0 0 -0 -0 0 -0 0 0 0 0 0 0 0 0 0
0 -0 0 0 0 0 0 0 0 0 0 0 -0 0 -0 0 0 -0 0 -0 0 0 0 -0 0 0 0 -0 -0 -0 -0 0 -0 -0 -0 -0 -0 0 0 0 0 0 0 0 0
-0 0 0 0 0 0 0 0 0 0 0 0 -0 -0 0 0 -0 -0 0 -0 -0 -0 0 -0 0 0 0 -0 0 0 -0 -0 -0 -0 -0 0 0 0 0 0 0 0 0 0 0
0 0 0 0 0 0 0 0 0 0 0 0 -0 -0 -0 0 -0 0 0 0 0 0 -0 -0 0 0 0 0 0 0 -0 0 0 0 -0 -0 0 0 0 0 0 0 0 0 0
0 0 0 0 0 0 0 0 0 0 0 0 0 0 0 0 -0 0 0 0 0 0 0 0 0 -0 -0 0 -0 0 0 0 0 0 0 0 0 0 0 0 0 0 0 0 0
0 0 0 0 0 0 0 0 0 0 0 0 0 0 0 0 -0 0 0 0 0 0 0 0 0 0 -0 0 0 0 0 0 0 0 0 0 0 0 0 0 0 0 0 0 0
0 0 0 0 0 0 0 0 0 0 0 0 0 0 0 0 0 0 0 0 0 0 0 0 0 0 0 -0 0 -0 0 0 0 0 0 0 0 0 0 0 0 0 0 0 0
0 0 0 0 0 0 0 0 0 0 0 0 0 0 0 0 0 0 0 0 0 0 0 0 0 0 0 0 0 0 0 0 0 0 0 0 0 0 0 0 0 0 0 0 0
0 0 0 0 0 0 0 0 0 0 0 0 0 0 0 0 0 0 0 0 0 0 0 0 0 0 0 0 0 0 0 0 0 0 0 0 0 0 0 0 0 0 0 0 0
0 0 0 0 0 0 0 0 0 0 0 0 0 0 0 0 0 0 0 0 0 0 0 0 0 0 0 -0 0 0 0 0 0 0 0 0 0 0 0 0 0 0 0 0 0
0 0 0 0 0 0 0 0 0 0 0 0 0 0 0 0 0 0 0 0 0 0 0 0 0 0 0 0 0 0 0 0 0 0 0 0 0 0 0 0 0 0 0 0 0
Wind_Speed_500mb
22 23 26 28 29 30 32 32 31 29 30 27 27 25 24 19 6 5 6 11 16 11 7 6 11 13 14 20 25 20 16 23 33 30 16 11 11 26 12 24 16 9 36 37 29
23 24 27 29 30 30 32 33 31 29 30 26 26 23 21 16 13 21 21 19 14 11 8 10 16 11 21 22 15 16 20 29 26 25 29 25 18 23 22 18 28 44 27 29 27
24 26 28 29 31 31 32 33 32 29 28 24 23 21 19 15 16 8 6 8 7 13 2 20 14 14 30 20 18 20 21 34 35 31 31 27 25 28 17 25 36 32 21 27 23
24 26 29 29 31 32 33 33 32 28 26 23 21 20 17 9 6 1 3 2 7 10 9 13 14 27 24 14 6 15 27 17 26 28 15 20 32 26 25 31 30 30 23 13 25
25 27 30 29 32 33 33 32 30 28 25 20 18 15 10 11 11 7 2 3 3 1 13 13 17 23 21 7 6 20 23 12 21 17 23 31 28 24 37 28 29 27 30 33 23
25 28 31 30 32 34 34 29 30 26 21 16 13 11 4 21 3 4 5 5 5 14 10 16 22 21 20 15 22 28 23 27 25 19 22 26 28 36 25 22 25 19 15 22 24
25 28 31 30 33 35 33 28 30 24 16 12 11 8 13 15 4 4 6 9 8 10 15 11 15 19 28 25 17 22 24 34 22 10 13 13 27 27 11 19 18 15 16 17 16
26 28 31 31 33 33 31 29 29 20 11 9 7 3 14 4 7 9 9 11 11 12 14 13 15 22 29 26 31 28 33 31 24 4 12 16 9 16 18 16 22 18 21 2 1
28 28 31 32 32 29 29 27 17 12 4 3 5 6 14 4 5 6 8 13 8 11 14 16 17 27 33 28 29 29 23 9 14 18 9 17 20 17 16 17 17 9 21 23 16
29 28 31 31 29 26 26 14 10 4 4 3 12 14 15 3 4 7 7 11 10 10 17 20 24 25 28 21 18 29 22 8 8 15 14 28 18 13 18 27 47 50 49 43 38
29 28 30 28 26 23 22 21 11 3 10 19 5 15 3 3 4 5 5 7 10 18 23 34 18 8 25 17 18 20 14 15 10 7 7 22 12 21 32 46 40 36 33 24 40
29 29 29 25 19 15 26 17 16 14 22 19 17 17 8 5 7 6 7 14 10 22 4 17 15 17 10 6 13 13 18 22 18 3 11 24 41 50 49 21 42 45 42 46 53
29 28 28 23 11 22 12 18 21 17 13 15 14 17 16 15 8 9 11 14 20 19 16 19 25 7 11 18 15 19 7 16 21 24 23 7 35 53 57 35 42 41 47 47 46
30 27 29 15 8 14 4 20 20 12 9 20 18 12 12 16 10 3 7 15 9 22 1 11 18 6 14 10 15 14 16 17 23 24 24 25 9 21 29 30 33 39 44 46 46
28 27 21 23 15 13 20 23 22 6 8 27 21 12 17 20 8 13 9 13 27 4 12 11 4 3 18 23 13 25 11 22 21 27 24 23 19 16 45 21 28 37 37 41 46
27 27 21 15 17 19 27 25 12 9 6 10 12 17 19 20 10 12 12 14 13 17 13 20 6 7 17 16 17 16 21 31 30 22 10 8 16 14 15 17 23 32 34 36 41
26 26 25 18 3 19 27 14 9 12 16 12 17 24 26 11 12 18 17 21 13 16 18 14 18 9 9 25 18 12 19 19 12 7 8 30 16 18 18 21 25 27 33 35 37
25 25 21 20 15 20 17 11 12 6 7 8 16 25 12 18 9 9 16 14 7 24 28 12 18 9 8 14 18 18 13 13 24 20 18 30 22 21 29 29 32 33 35 36 39
24 16 26 19 10 10 12 15 12 8 10 9 12 18 17 2 7 19 19 26 14 20 18 17 11 7 6 14 16 19 17 22 19 28 19 10 11 9 23 21 25 28 33 35 36
19 18 17 16 12 5 10 18 13 12 11 11 18 18 18 19 14 13 13 16 14 12 21 19 14 5 5 11 18 5 13 16 9 14 25 29 17 10 17 17 21 28 30 28 31
11 10 11 12 5 13 13 15 5 5 4 8 18 8 8 15 19 10 22 17 13 17 17 19 15 15 19 6 20 23 21 18 14 14 19 18 13 16 14 17 18 25 22 23 30
7 9 5 12 14 21 20 10 5 11 8 5 17 13 2 5 9 8 27 17 16 17 19 17 8 15 29 19 20 17 10 18 8 22 20 20 20 21 17 21 16 22 26 26 24
13 18 5 13 10 16 10 6 8 6 12 9 5 13 12 1 6 10 20 11 14 19 12 17 10 11 14 20 7 18 18 15 18 9 20 17 14 12 21 31 30 25 24 24 22
11 7 10 15 25 22 16 14 12 10 6 6 2 3 7 4 5 3 15 6 11 20 6 8 7 12 15 28 23 17 20 21 17 14 21 24 31 30 26 17 14 18 10 22 27
10 11 2 9 20 23 20 13 21 13 7 9 5 14 10 5 7 8 6 17 11 7 6 8 7 14 20 27 29 29 23 25 22 17 16 26 23 30 27 26 34 39 24 22 23
9 10 11 19 13 20 10 19 23 20 14 14 10 14 6 7 6 8 5 6 14 8 7 6 9 18 23 29 24 19 28 25 17 16 22 17 18 22 30 25 36 43 38 37 33
12 16 11 12 9 13 19 19 21 17 2 12 15 6 6 21 24 20 13 9 9 6 9 7 10 13 19 22 27 22 22 19 16 22 24 21 21 34 30 31 37 32 44 40 42
Wind_Direction_500mb
331 329 329 330 331 335 329 321 322 323 317 321 320 324 326 314 247 243 322 265 267 256 201 360 255 257 245 255 249 270 269 268 264 272 260 88 34 347 345 312 324 286 100 114 141
328 330 329 328 330 335 325 324 323 325 318 321 320 324 323 307 262 269 252 286 254 217 203 258 259 229 248 236 227 226 245 254 283 353 343 2 11 329 322 325 310 78 95 125 144
328 329 325 326 332 329 324 325 324 326 321 321 319 319 315 296 307 123 268 259 202 167 86 302 287 272 259 242 225 248 250 298 328 358 330 313 311 280 340 306 332 354 122 157 152
325 326 322 328 330 326 324 327 325 325 325 323 319 315 310 278 345 86 326 19 209 210 289 274 263 260 260 222 182 270 267 294 302 305 278 268 269 304 302 291 309 296 297 218 164
325 323 320 330 327 322 327 329 324 323 325 327 319 312 297 277 251 270 321 41 65 33 273 264 261 264 280 310 291 242 276 316 289 267 265 269 283 288 272 290 286 323 300 287 265
325 323 321 330 325 323 330 329 323 321 323 327 322 303 275 261 100 271 71 268 332 259 273 267 301 340 307 305 297 317 312 295 276 285 267 251 267 260 276 337 316 313 332 316 303
326 324 322 328 324 328 327 329 319 317 317 320 317 305 268 291 165 220 218 259 260 283 263 277 291 294 303 283 286 285 280 271 226 227 291 325 257 239 249 332 332 296 353 2 300
327 327 324 327 325 332 328 328 319 305 305 304 298 278 284 208 203 243 248 261 257 266 271 295 286 283 277 278 286 251 253 255 134 270 148 268 330 107 38 343 332 356 302 69 212
327 326 325 328 330 336 332 333 331 304 302 267 104 281 269 283 230 225 242 250 229 268 265 278 282 270 275 251 258 234 266 111 137 120 308 275 316 54 49 339 281 288 340 356 4
323 327 326 330 336 345 343 326 341 12 341 159 237 265 239 236 136 268 264 250 249 280 257 240 256 241 228 260 349 346 360 110 280 104 26 302 308 30 33 32 42 33 17 5 2
323 329 327 335 343 11 17 10 328 341 249 272 196 264 227 250 278 265 209 215 252 247 262 206 261 300 20 360 334 315 322 284 266 16 325 289 314 53 37 65 50 45 32 24 52
322 330 327 336 346 41 23 19 23 319 300 241 241 250 252 225 241 218 204 248 217 272 225 239 225 52 355 330 303 282 275 13 315 131 251 281 31 24 78 318 62 54 63 33 37
324 327 329 338 30 21 6 13 352 324 266 197 210 210 191 212 278 178 212 249 268 271 246 289 67 81 286 279 277 242 8 353 305 299 257 216 44 357 308 76 68 51 69 64 44
321 325 331 342 18 12 13 350 347 335 281 151 188 188 189 216 226 163 250 302 244 302 201 308 80 313 282 257 321 22 15 309 303 291 284 192 127 194 284 83 74 55 42 58 59
314 317 335 336 318 17 329 335 329 332 254 161 138 130 186 217 127 161 204 249 278 278 267 77 235 289 292 25 342 308 355 298 285 278 294 147 112 312 328 85 73 63 45 42 52
309 312 318 322 319 318 320 319 319 238 210 139 146 188 185 211 187 119 200 232 288 273 239 298 63 277 344 304 260 301 283 274 264 254 239 132 140 213 223 67 76 71 53 40 44
302 303 308 299 205 322 326 324 235 258 144 143 174 173 190 158 153 192 194 205 259 234 205 194 193 150 250 295 210 239 318 318 250 327 89 243 305 122 121 81 79 65 55 48 43
296 304 300 286 282 312 323 256 258 110 120 144 172 207 142 169 140 179 195 155 67 346 319 250 154 154 28 357 338 313 318 11 332 335 336 218 20 105 83 65 70 56 51 38 43
301 302 296 307 284 275 284 240 342 1 90 175 229 182 136 110 274 215 67 37 47 359 340 347 54 98 87 326 329 357 14 336 310 292 269 101 28 263 96 58 40 55 47 33 42
308 306 259 209 268 240 251 258 318 27 350 284 211 221 177 173 232 230 133 39 355 7 343 357 306 130 14 281 221 349 311 343 329 330 336 330 121 197 46 29 23 37 33 31 28
310 270 186 218 234 233 242 269 127 68 296 285 299 198 329 135 263 197 83 72 9 349 309 26 323 313 279 26 5 345 339 357 349 313 317 337 21 93 71 64 11 16 18 35 22
269 246 186 180 221 228 243 266 358 151 212 287 302 316 321 22 261 33 65 54 354 348 343 45 315 306 308 334 38 323 9 37 357 330 336 317 306 71 66 70 43 18 19 17 7
246 231 199 182 231 229 212 256 245 185 203 215 281 345 354 33 27 0 96 41 8 36 24 350 23 309 289 140 67 358 5 333 326 294 283 297 306 151 84 2 20 8 7 350 357
278 226 165 208 262 285 274 232 204 304 143 287 289 207 214 217 223 128 131 103 47 67 18 324 303 293 295 311 327 312 311 310 311 292 308 307 325 342 47 52 25 338 344 347 334
239 258 12 194 241 255 281 208 204 180 233 200 190 239 225 234 236 212 40 143 152 90 182 27 289 312 309 316 305 293 303 318 309 331 334 329 346 16 7 353 1 38 11 327 328
275 300 312 276 273 213 230 251 221 178 189 200 258 224 84 266 12 349 65 341 58 99 38 40 303 309 301 284 292 325 297 296 29 2 318 308 40 8 38 348 352 348 14 21 12
239 287 293 240 220 230 218 236 233 169 270 287 212 161 218 63 46 39 51 44 51 4 349 313 343 316 297 326 320 284 29 37 356 354 342 331 11 6 359 356 346 18 19 8 355
Wind_Speed_850mb
22 23 26 28 29 30 32 32 31 29 30 27 27 25 24 19 6 5 6 11 16 11 7 6 11 13 14 20 25 20 16 23 33 30 16 11 11 26 12 24 16 9 36 37 29
23 24 27 29 30 30 32 33 31 29 30 26 26 23 21 16 13 21 21 19 14 11 8 10 16 11 21 22 15 16 20 29 26 25 29 25 18 23 22 18 28 44 27 29 27
24 26 28 29 31 31 32 33 32 29 28 24 23 21 19 15 16 8 6 8 7 13 2 20 14 14 30 20 18 20 21 34 35 31 31 27 25 28 17 25 36 32 21 27 23
24 26 29 29 31 32 33 33 32 28 26 23 21 20 17 9 6 1 3 2 7 10 9 13 14 27 24 14 6 15 27 17 26 28 15 20 32 26 25 31 30 30 23 13 25
25 27 30 29 32 33 33 32 30 28 25 20 18 15 10 11 11 7 2 3 3 1 13 13 17 23 21 7 6 20 23 12 21 17 23 31 28 24 37 28 29 27 30 33 23
25 28 31 30 32 34 34 29 30 26 21 16 13 11 4 21 3 4 5 5 5 14 10 16 22 21 20 15 22 28 23 27 25 19 22 26 28 36 25 22 25 19 15 22 24
25 28 31 30 33 35 33 28 30 24 16 12 11 8 13 15 4 4 6 9 8 10 15 11 15 19 28 25 17 22 24 34 22 10 13 13 27 27 11 19 18 15 16 17 16
26 28 31 31 33 33 31 29 29 20 11 9 7 3 14 4 7 9 9 11 11 12 14 13 15 22 29 26 31 28 33 31 24 4 12 16 9 16 18 16 22 18 21 2 1
28 28 31 32 32 29 29 27 17 12 4 3 5 6 14 4 5 6 8 13 8 11 14 16 17 27 33 28 29 29 23 9 14 18 9 17 20 17 16 17 17 9 21 23 16
29 28 31 31 29 26 26 14 10 4 4 3 12 14 15 3 4 7 7 11 10 10 17 20 24 25 28 21 18 29 22 8 8 15 14 28 18 13 18 27 47 50 49 43 38
29 28 30 28 26 23 22 21 11 3 10 19 5 15 3 3 4 5 5 7 10 18 23 34 18 8 25 17 18 20 14 15 10 7 7 22 12 21 32 46 40 36 33 24 40
29 29 29 25 19 15 26 17 16 14 22 19 17 17 8 5 7 6 7 14 10 22 4 17 15 17 10 6 13 13 18 22 18 3 11 24 41 50 49 21 42 45 42 46 53
29 28 28 23 11 22 12 18 21 17 13 15 14 17 16 15 8 9 11 14 20 19 16 19 25 7 11 18 15 19 7 16 21 24 23 7 35 53 57 35 42 41 47 47 46
30 27 29 15 8 14 4 20 20 12 9 20 18 12 12 16 10 3 7 15 9 22 1 11 18 6 14 10 15 14 16 17 23 24 24 25 9 21 29 30 33 39 44 46 46
28 27 21 23 15 13 20 23 22 6 8 27 21 12 17 20 8 13 9 13 27 4 12 11 4 3 18 23 13 25 11 22 21 27 24 23 19 16 45 21 28 37 37 41 46
27 27 21 15 17 19 27 25 12 9 6 10 12 17 19 20 10 12 12 14 13 17 13 20 6 7 17 16 17 16 21 31 30 22 10 8 16 14 15 17 23 32 34 36 41
26 26 25 18 3 19 27 14 9 12 16 12 17 24 26 11 12 18 17 21 13 16 18 14 18 9 9 25 18 12 19 19 12 7 8 30 16 18 18 21 25 27 33 35 37
25 25 21 20 15 20 17 11 12 6 7 8 16 25 12 18 9 9 16 14 7 24 28 12 18 9 8 14 18 18 13 13 24 20 18 30 22 21 29 29 32 33 35 36 39
24 16 26 19 10 10 12 15 12 8 10 9 12 18 17 2 7 19 19 26 14 20 18 17 11 7 6 14 16 19 17 22 19 28 19 10 11 9 23 21 25 28 33 35 36
19 18 17 16 12 5 10 18 13 12 11 11 18 18 18 19 14 13 13 16 14 12 21 19 14 5 5 11 18 5 13 16 9 14 25 29 17 10 17 17 21 28 30 28 31
11 10 11 12 5 13 13 15 5 5 4 8 18 8 8 15 19 10 22 17 13 17 17 19 15 15 19 6 20 23 21 18 14 14 19 18 13 16 14 17 18 25 22 23 30
7 9 5 12 14 21 20 10 5 11 8 5 17 13 2 5 9 8 27 17 16 17 19 17 8 15 29 19 20 17 10 18 8 22 20 20 20 21 17 21 16 22 26 26 24
13 18 5 13 10 16 10 6 8 6 12 9 5 13 12 1 6 10 20 11 14 19 12 17 10 11 14 20 7 18 18 15 18 9 20 17 14 12 21 31 30 25 24 24 22
11 7 10 15 25 22 16 14 12 10 6 6 2 3 7 4 5 3 15 6 11 20 6 8 7 12 15 28 23 17 20 21 17 14 21 24 31 30 26 17 14 18 10 22 27
10 11 2 9 20 23 20 13 21 13 7 9 5 14 10 5 7 8 6 17 11 7 6 8 7 14 20 27 29 29 23 25 22 17 16 26 23 30 27 26 34 39 24 22 23
9 10 11 19 13 20 10 19 23 20 14 14 10 14 6 7 6 8 5 6 14 8 7 6 9 18 23 29 24 19 28 25 17 16 22 17 18 22 30 25 36 43 38 37 33
12 16 11 12 9 13 19 19 21 17 2 12 15 6 6 21 24 20 13 9 9 6 9 7 10 13 19 22 27 22 22 19 16 22 24 21 21 34 30 31 37 32 44 40 42
Wind_Direction_850mb
331 329 329 330 331 335 329 321 322 323 317 321 320 324 326 314 247 243 322 265 267 256 201 360 255 257 245 255 249 270 269 268 264 272 260 88 34 347 345 312 324 286 100 114 141
328 330 329 328 330 335 325 324 323 325 318 321 320 324 323 307 262 269 252 286 254 217 203 258 259 229 248 236 227 226 245 254 283 353 343 2 11 329 322 325 310 78 95 125 144
328 329 325 326 332 329 324 325 324 326 321 321 319 319 315 296 307 123 268 259 202 167 86 302 287 272 259 242 225 248 250 298 328 358 330 313 311 280 340 306 332 354 122 157 152
325 326 322 328 330 326 324 327 325 325 325 323 319 315 310 278 345 86 326 19 209 210 289 274 263 260 260 222 182 270 267 294 302 305 278 268 269 304 302 291 309 296 297 218 164
325 323 320 330 327 322 327 329 324 323 325 327 319 312 297 277 251 270 321 41 65 33 273 264 261 264 280 310 291 242 276 316 289 267 265 269 283 288 272 290 286 323 300 287 265
325 323 321 330 325 323 330 329 323 321 323 327 322 303 275 261 100 271 71 268 332 259 273 267 301 340 307 305 297 317 312 295 276 285 267 251 267 260 276 337 316 313 332 316 303
326 324 322 328 324 328 327 329 319 317 317 320 317 305 268 291 165 220 218 259 260 283 263 277 291 294 303 283 286 285 280 271 226 227 291 325 257 239 249 332 332 296 353 2 300
327 327 324 327 325 332 328 328 319 305 305 304 298 278 284 208 203 243 248 261 257 266 271 295 286 283 277 278 286 251 253 255 134 270 148 268 330 107 38 343 332 356 302 69 212
327 326 325 328 330 336 332 333 331 304 302 267 104 281 269 283 230 225 242 250 229 268 265 278 282 270 275 251 258 234 266 111 137 120 308 275 316 54 49 339 281 288 340 356 4
323 327 326 330 336 345 343 326 341 12 341 159 237 265 239 236 136 268 264 250 249 280 257 240 256 241 228 260 349 346 360 110 280 104 26 302 308 30 33 32 42 33 17 5 2
323 329 327 335 343 11 17 10 328 341 249 272 196 264 227 250 278 265 209 215 252 247 262 206 261 300 20 360 334 315 322 284 266 16 325 289 314 53 37 65 50 45 32 24 52
322 330 327 336 346 41 23 19 23 319 300 241 241 250 252 225 241 218 204 248 217 272 225 239 225 52 355 330 303 282 275 13 315 131 251 281 31 24 78 318 62 54 63 33 37
324 327 329 338 30 21 6 13 352 324 266 197 210 210 191 212 278 178 212 249 268 271 246 289 67 81 286 279 277 242 8 353 305 299 257 216 44 357 308 76 68 51 69 64 44
321 325 331 342 18 12 13 350 347 335 281 151 188 188 189 216 226 163 250 302 244 302 201 308 80 313 282 257 321 22 15 309 303 291 284 192 127 194 284 83 74 55 42 58 59
314 317 335 336 318 17 329 335 329 332 254 161 138 130 186 217 127 161 204 249 278 278 267 77 235 289 292 25 342 308 355 298 285 278 294 147 112 312 328 85 73 63 45 42 52
309 312 318 322 319 318 320 319 319 238 210 139 146 188 185 211 187 119 200 232 288 273 239 298 63 277 344 304 260 301 283 274 264 254 239 132 140 213 223 67 76 71 53 40 44
302 303 308 299 205 322 326 324 235 258 144 143 174 173 190 158 153 192 194 205 259 234 205 194 193 150 250 295 210 239 318 318 250 327 89 243 305 122 121 81 79 65 55 48 43
296 304 300 286 282 312 323 256 258 110 120 144 172 207 142 169 140 179 195 155 67 346 319 250 154 154 28 357 338 313 318 11 332 335 336 218 20 105 83 65 70 56 51 38 43
301 302 296 307 284 275 284 240 342 1 90 175 229 182 136 110 274 215 67 37 47 359 340 347 54 98 87 326 329 357 14 336 310 292 269 101 28 263 96 58 40 55 47 33 42
308 306 259 209 268 240 251 258 318 27 350 284 211 221 177 173 232 230 133 39 355 7 343 357 306 130 14 281 221 349 311 343 329 330 336 330 121 197 46 29 23 37 33 31 28
310 270 186 218 234 233 242 269 127 68 296 285 299 198 329 135 263 197 83 72 9 349 309 26 323 313 279 26 5 345 339 357 349 313 317 337 21 93 71 64 11 16 18 35 22
269 246 186 180 221 228 243 266 358 151 212 287 302 316 321 22 261 33 65 54 354 348 343 45 315 306 308 334 38 323 9 37 357 330 336 317 306 71 66 70 43 18 19 17 7
246 231 199 182 231 229 212 256 245 185 203 215 281 345 354 33 27 0 96 41 8 36 24 350 23 309 289 140 67 358 5 333 326 294 283 297 306 151 84 2 20 8 7 350 357
278 226 165 208 262 285 274 232 204 304 143 287 289 207 214 217 223 128 131 103 47 67 18 324 303 293 295 311 327 312 311 310 311 292 308 307 325 342 47 52 25 338 344 347 334
239 258 12 194 241 255 281 208 204 180 233 200 190 239 225 234 236 212 40 143 152 90 182 27 289 312 309 316 305 293 303 318 309 331 334 329 346 16 7 353 1 38 11 327 328
275 300 312 276 273 213 230 251 221 178 189 200 258 224 84 266 12 349 65 341 58 99 38 40 303 309 301 284 292 325 297 296 29 2 318 308 40 8 38 348 352 348 14 21 12
239 287 293 240 220 230 218 236 233 169 270 287 212 161 218 63 46 39 51 44 51 4 349 313 343 316 297 326 320 284 29 37 356 354 342 331 11 6 359 356 346 18 19 8 355